EW0545 Weather Reports


time (UTC)temp
F
wind
direction
speed
knots
gust
knots
rain 1hr
in
rain 24hr
in
rain mn
in
humidity
%
barometer
mb
20260508224557 62 180 0.0 0.0 0.00 0.00 0.00 58 1006.3
20260508221546 64 215 0.0 0.0 0.00 0.00 0.00 45 1006.5
20260508220022 65 233 0.0 0.0 0.00 0.00 0.00 44 1006.6
20260508213017 64 195 0.0 0.0 0.00 0.00 0.00 47 1006.8
20260508204509 66 183 0.0 0.0 0.00 0.00 0.00 45 1006.9
20260508200042 66 209 0.0 0.0 0.00 0.00 0.00 47 1007.6
20260508191600 63 190 0.0 0.0 0.00 0.00 0.00 51 1008.4
20260508190006 62 174 0.0 0.9 0.00 0.00 0.00 49 1008.7
20260508181544 66 242 0.0 0.0 0.00 0.00 0.00 41 1009.1
20260508180048 67 296 0.0 0.0 0.00 0.00 0.00 40 1009.2
20260508171551 62 201 0.0 0.0 0.00 0.00 0.00 50 1010.2
20260508153047 58 34 0.0 0.0 0.00 0.00 0.00 49 1011.3
20260508151559 61 120 0.0 0.9 0.00 0.00 0.00 47 1011.4
20260508144525 57 32 0.0 0.0 0.00 0.00 0.00 55 1011.5
20260508131542 54 247 0.0 0.9 0.00 0.00 0.00 36 1012.1
20260508130023 53 247 0.0 0.0 0.00 0.00 0.00 6 1012.2
20260508113010 42 246 0.0 0.0 0.00 0.00 0.00 1 1011.5
20260508104501 41 246 0.0 0.0 0.00 0.00 0.00 1 1011.2
20260508103044 41 246 0.0 0.0 0.00 0.00 0.00 1 1011.0
20260508084506 43 246 0.0 0.0 0.00 0.00 0.00 1 1011.1
20260508080014 44 246 0.0 0.0 0.00 0.00 0.00 1 1011.1
20260508060131 44 246 0.0 0.0 0.00 0.00 0.00 15 1011.6
20260508060001 44 246 0.0 0.0 0.00 0.00 0.00 16 1011.6
20260508054622 44 246 0.0 0.0 0.00 0.00 0.00 22 1011.5
20260508053045 45 246 0.0 0.0 0.00 0.00 0.00 29 1011.8
20260508051528 45 246 0.0 0.0 0.00 0.00 0.00 36 1011.7
20260508044506 46 246 0.0 0.0 0.00 0.00 0.00 44 1011.7
20260508043009 46 246 0.0 0.0 0.00 0.00 0.00 47 1011.5
20260508024612 48 250 0.0 0.0 0.00 0.00 0.00 59 1012.1
20260508023019 49 249 0.0 0.0 0.00 0.00 0.00 60 1012.0
20260508011614 51 247 0.0 0.0 0.00 0.00 0.00 57 1011.4
20260508000056 53 242 0.0 0.0 0.00 0.00 0.00 48 1010.8
20260507231525 55 241 0.0 0.0 0.00 0.00 0.00 45 1011.1